Weather History for YPXM - December, 2012

Change the Weather History Date:

Tuesday, December 18, 2012

  Actual Average Record
Temperature  
Mean Temperature 76 °F -  
Max Temperature 80 °F 79 °F 84 °F (2014)
Min Temperature 73 °F 71 °F 68 °F (2001)
Cooling Degree Days 12    
Growing Degree Days 26 (Base 50)    
Moisture  
Dew Point 74 °F    
Average Humidity 95    
Maximum Humidity 100    
Minimum Humidity 76    
Precipitation  
Precipitation 0.31 in - - ()
Sea Level Pressure  
Sea Level Pressure 29.84 in    
Wind  
Wind Speed 2 mph ()    
Max Wind Speed 9 mph    
Max Gust Speed -    
Visibility 4.3 miles    
Events Rain    
Averages and records for this station are not official NWS values.
T = Trace of Precipitation, MM = Missing Value Source: Averaged Metar Reports

Daily Weather History Graph

Daily Weather History Graph

Search for Another Location

Airport or City:

Trip Planner

Search our weather history database for the weather conditions in past years. The results will help you decide how hot, cold, wet, or windy it might be!

Date:

Astronomy

Dec. 18, 2012 Rise Set
Actual Time 5:31 AM CXT 6:16 PM CXT
Civil Twilight 5:08 AM CXT 6:39 PM CXT
Nautical Twilight 4:41 AM CXT 7:06 PM CXT
Astronomical Twilight 4:13 AM CXT 7:33 PM CXT
Moon 10:10 AM CXT (12/18) 10:41 PM CXT (12/18)
Length of Visible Light 13h 30m
Length of Day
12h 44m
Waxing Crescent, 29% of the Moon is Illuminated
Dec 18
Waxing Crescent
Dec 20
First Quarter
Dec 28
Full
Jan 5
Last Quarter
Jan 12
New

Hourly Weather History & Observations

Time (CXT) Temp. Dew Point Humidity Pressure Visibility Wind Dir Wind Speed Gust Speed Precip Events Conditions
12:00 AM 74 °F 73 °F 95% 29.82 in - Calm Calm - -  
12:00 AM 73.4 °F 73.4 °F 100% 29.86 in 6.2 mi Calm Calm - N/A   Scattered Clouds
1:00 AM 73 °F 73 °F 99% 29.81 in - Calm Calm - -  
1:00 AM 73.4 °F 73.4 °F 100% 29.83 in 6.2 mi Calm Calm - N/A   Unknown
2:00 AM 73.4 °F 73.4 °F 100% 29.83 in - East 1.2 mph - N/A   Unknown
3:00 AM 74 °F 73 °F 97% 29.79 in - Calm Calm - -  
3:00 AM 73.4 °F 73.4 °F 100% 29.83 in 6.2 mi Calm Calm - N/A   Scattered Clouds
3:41 AM 73.4 °F 73.4 °F 100% 29.83 in 6.2 mi Calm Calm - N/A   Mostly Cloudy
4:00 AM 74 °F 73 °F 97% 29.78 in - Calm Calm - -  
4:00 AM 73.4 °F 73.4 °F 100% 29.83 in 6.2 mi Calm Calm - N/A   Overcast
4:28 AM 73.4 °F 73.4 °F 100% 29.83 in 3.7 mi Calm Calm - N/A   Mostly Cloudy
7:30 AM 77.0 °F 75.2 °F 94% 29.86 in 3.7 mi ESE 5.8 mph - N/A Rain Rain
7:45 AM 77.0 °F 75.2 °F 94% 29.86 in 5.6 mi ESE 8.1 mph - N/A Rain Rain
8:00 AM 77.0 °F 75.2 °F 94% 29.86 in 6.2 mi ESE 9.2 mph - N/A Rain Light Rain Showers
8:50 AM 77.0 °F 75.2 °F 94% 29.89 in 0.2 mi East 5.8 mph - N/A Rain Light Rain Showers
8:53 AM 75.2 °F 75.2 °F 100% 29.89 in 0.1 mi East 6.9 mph - N/A Rain Light Rain Showers
9:00 AM 75 °F 75 °F 99% 29.85 in 0 mi East 6.9 mph - -   Overcast
9:00 AM 75.2 °F 75.2 °F 100% 29.89 in 0.2 mi East 6.9 mph - N/A Rain Heavy Rain Showers
10:00 AM 76 °F 75 °F 95% 29.85 in - SE 1.2 mph - -  
10:00 AM 75.2 °F 75.2 °F 100% 29.89 in 6.2 mi SE 1.2 mph - N/A Rain Light Rain Showers
10:31 AM 75.2 °F 75.2 °F 100% 29.89 in 3.7 mi SE 4.6 mph - N/A Rain Light Rain
10:34 AM 75.2 °F 75.2 °F 100% 29.89 in 0.5 mi ESE 4.6 mph - N/A Rain Light Rain
10:53 AM 75.2 °F 75.2 °F 100% 29.86 in 0.4 mi ESE 3.5 mph - N/A Rain Rain
10:54 AM 75.2 °F 75.2 °F 100% 29.86 in 0.4 mi ESE 2.3 mph - N/A Rain Rain
11:00 AM 75.2 °F 75.2 °F 100% 29.86 in 1.0 mi ESE 1.2 mph - N/A Rain Rain
11:16 AM 75.2 °F 73.4 °F 94% 29.86 in 0.2 mi ESE 2.3 mph - N/A Rain Light Rain
11:29 AM 75.2 °F 75.2 °F 100% 29.86 in 0.3 mi Calm Calm - N/A Rain Rain
12:00 PM 76 °F 75 °F 94% 29.83 in - Calm Calm - -   Overcast
12:00 PM 75.2 °F 75.2 °F 100% 29.86 in 6.2 mi Calm Calm - N/A Rain Rain
1:00 PM 76 °F 75 °F 97% 29.81 in - West 3.5 mph - -  
1:00 PM 77.0 °F 75.2 °F 94% 29.83 in 6.2 mi West 3.5 mph - N/A Rain Light Rain
1:12 PM 77.0 °F 75.2 °F 94% 29.83 in 6.2 mi NW 4.6 mph - N/A Rain Light Rain
2:00 PM 77.0 °F 73.4 °F 89% 29.83 in 6.2 mi WSW 3.5 mph - N/A   Mostly Cloudy
3:00 PM 79 °F 75 °F 83% 29.76 in - NNE 1.2 mph - -   Overcast
3:00 PM 78.8 °F 75.2 °F 89% 29.80 in 6.2 mi NNE 1.2 mph - N/A   Overcast
4:00 PM 79 °F 73 °F 76% 29.75 in - West 4.6 mph - -  
4:00 PM 78.8 °F 73.4 °F 83% 29.77 in 6.2 mi West 4.6 mph - N/A   Scattered Clouds
4:05 PM 78.8 °F 73.4 °F 83% 29.77 in 6.2 mi West 4.6 mph - N/A   Scattered Clouds
5:00 PM 78.8 °F 73.4 °F 83% 29.80 in 6.2 mi West 4.6 mph - N/A   Scattered Clouds
6:00 PM 77 °F 73 °F 85% 29.79 in - WSW 3.5 mph - -  
6:00 PM 77.0 °F 73.4 °F 89% 29.83 in 6.2 mi WSW 3.5 mph - N/A   Mostly Cloudy
6:11 PM 77.0 °F 73.4 °F 89% 29.83 in - SW 3.5 mph - N/A   Scattered Clouds
6:17 PM 77.0 °F 73.4 °F 89% 29.83 in 0.6 mi South 3.5 mph - N/A   Mostly Cloudy
6:23 PM 75.2 °F 73.4 °F 94% 29.83 in 0.7 mi South 2.3 mph - N/A   Mostly Cloudy
6:24 PM 75.2 °F 73.4 °F 94% 29.83 in 0.8 mi South 2.3 mph - N/A   Mostly Cloudy
6:43 PM 75.2 °F 73.4 °F 94% 29.83 in 6.2 mi Calm Calm - N/A   Scattered Clouds
7:00 PM 75 °F 74 °F 95% 29.81 in - Calm Calm - -  
7:00 PM 75.2 °F 73.4 °F 94% 29.83 in 6.2 mi Calm Calm - N/A   Unknown
8:00 PM 75.2 °F 73.4 °F 94% 29.86 in 6.2 mi WNW 3.5 mph - N/A   Unknown
9:00 PM 74 °F 73 °F 95% 29.83 in - West 2.3 mph - -  
9:00 PM 73.4 °F 73.4 °F 100% 29.86 in 6.2 mi WSW 2.3 mph - N/A   Scattered Clouds
9:46 PM 75.2 °F 73.4 °F 94% 29.89 in 6.2 mi Calm Calm - N/A   Mostly Cloudy
10:00 PM 74 °F 73 °F 97% 29.84 in - SW 3.5 mph - -  
10:00 PM 75.2 °F 73.4 °F 94% 29.86 in 6.2 mi SW 3.5 mph - N/A   Scattered Clouds
10:04 PM 75.2 °F 73.4 °F 94% 29.86 in 6.2 mi SSW 3.5 mph - N/A   Scattered Clouds
10:30 PM 75.2 °F 73.4 °F 94% 29.86 in 6.2 mi SW 2.3 mph - N/A   Mostly Cloudy
11:00 PM 75.2 °F 73.4 °F 94% 29.86 in 6.2 mi Calm Calm - N/A   Scattered Clouds
11:03 PM 75.2 °F 73.4 °F 94% 29.86 in 6.2 mi Calm Calm - N/A   Scattered Clouds